Regional Weather Roundup
Issued by NWS Goodland, KS

Home | Current Version | Previous Version | Text Only | Print | Product List | Glossary Off
Versions: 1 2 3 4 5 6 7 8 9 10 11 12 13 14 15 16 17 18 19 20 21 22 23 24 25 26 27 28 29 30 31 32 33 34 35 36 37 38 39 40 41 42 43 44 45 46 47 48 49 50

043
ASUS43 KGLD 161108
RWRGLD

GOODLAND FORECAST AREA HOURLY WEATHER ROUNDUP
NATIONAL WEATHER SERVICE GOODLAND KS
400 AM MST MON JAN 16 2017

...OFFICIAL OBSERVATIONS...

CITY           SKY/WX    TMP DP  RH WIND       PRES   REMARKS
GOODLAND KS    FRZ RAIN  30  29  96 N17G24    29.87F WCI  18
HILL CITY KS   MIX PCPN  32  32 100 NE10      29.89F FOG
IMPERIAL NEB   FRZ RAIN  31  30  96 NE12      29.94F FOG
MCCOOK NEB     FRZ RAIN  32  31  96 N12       29.93F FOG
AKRON CO       MIX PCPN  28  26  92 N14       29.92S FOG     WCI  17
BURLINGTON CO  FLURRIES  31  29  92 N13       29.88F
LIMON CO       LGT SNOW  27  25  92 NW20      29.89S FOG     WCI  13
$$

...UNOFFICIAL OBSERVATIONS...

CITY           SKY/WX    TMP DP  RH WIND       PRES   REMARKS
LENORA KS        N/A     31  32 100 CALM        N/A
NORTON KS      MIX PCPN  32  28  86 N8        29.89F
SHARON SPRINGS   N/A     31  30  95 NW8         N/A
TRENTON NEB      N/A     31  32 100 CALM        N/A
KIT CARSON CO    N/A     30  27  90 CALM        N/A
YUMA CO        LGT SNOW  28  28 100 NW8       29.91F
$$




USA.gov is the U.S. government's official web portal to all federal, state and local government web resources and services.